This demonstration page uses our WeatherBlox Daily Observations layout. Learn more.

38.88101, -77.10428

Hourly Observations for August 23, 2017

Temp ( °F °C ) Dew Point ( °F °C ) Humidity (%) Winds ( mph kmh ) Pressure ( in mb ) Visibility ( mi km ) Precip ( " mm )
12:52 am 00:52 Cloudy 84 28.9 72 22.2 67 67 NW 6 9 29.83 1010 10 16.0934 0 0
1:52 am 01:52 Mostly Cloudy 80 26.7 69 20.6 69 69 NW 7 11 29.82 1010 7 11.26538 0 0
2:52 am 02:52 Cloudy 80 26.7 69 20.6 69 69 NW 3 6 29.81 1010 10 16.0934 0 0
3:52 am 03:52 Mostly Cloudy 79 26.1 69 20.6 72 72 W 6 9 29.81 1010 10 16.0934 0 0
4:52 am 04:52 Cloudy 79 26.1 69 20.6 72 72 NW 3 6 29.81 1010 10 16.0934 0 0
5:52 am 05:52 Cloudy 79 26.1 68 20 69 69 WNW 6 9 29.83 1010 10 16.0934 0 0
6:52 am 06:52 Mostly Cloudy 78 25.6 68 20 71 71 NNW 7 11 29.84 1010 10 16.0934 0 0
7:52 am 07:52 Partly Cloudy 78 25.6 69 20.6 74 74 NNW 8 13 29.85 1011 10 16.0934 0 0
8:52 am 08:52 Mostly Cloudy 78 25.6 70 21.1 76 76 NNW 10 17 29.87 1011 10 16.0934 0 0
9:52 am 09:52 Cloudy 78 25.6 70 21.1 76 76 NNW 12 19 29.88 1012 10 16.0934 0 0
10:52 am 10:52 Cloudy 79 26.1 70 21.1 74 74 NW 6 9 29.89 1012 10 16.0934 0 0
11:52 am 11:52 Cloudy 80 26.7 67 19.4 64 64 N 9 15 29.89 1012 10 16.0934 0 0
12:52 pm 12:52 Cloudy 82 27.8 67 19.4 60 60 NW 10 17 29.89 1012 10 16.0934 0 0
1:52 pm 13:52 Mostly Cloudy 83 28.3 67 19.4 59 59 N 9 15 29.88 1012 10 16.0934 0 0
2:52 pm 14:52 Mostly Cloudy 83 28.3 63 17.2 51 51 NW 10 17 29.87 1012 10 16.0934 0 0
3:52 pm 15:52 Mostly Cloudy 85 29.4 63 17.2 48 48 N 8 13 29.85 1011 10 16.0934 0 0
4:52 pm 16:52 Mostly Cloudy 85 29.4 61 16.1 45 45 NW 13 20 29.85 1011 10 16.0934 0 0
5:52 pm 17:52 Partly Cloudy 84 28.9 60 15.6 44 44 NNE 8 13 29.85 1011 10 16.0934 0 0
6:52 pm 18:52 Partly Cloudy 82 27.8 59 15 46 46 NNE 10 17 29.85 1011 10 16.0934 0 0
7:52 pm 19:52 Clear 80 26.7 58 14.4 47 47 NNE 10 17 29.88 1012 10 16.0934 0 0
8:52 pm 20:52 Mostly Clear 79 26.1 60 15.6 52 52 NNE 8 13 29.89 1012 10 16.0934 0 0
9:52 pm 21:52 Partly Cloudy 78 25.6 60 15.6 54 54 NNE 9 15 29.89 1012 10 16.0934 0 0
10:52 pm 22:52 Mostly Cloudy 75 23.9 62 16.7 64 64 NNW 7 11 29.91 1013 10 16.0934 0 0
11:52 pm 23:52 Cloudy 77 25 59 15 54 54 N 5 7 29.93 1013 10 16.0934 0 0

Powered by AerisWeather